COSMOS 249 DEB, 3794

Orbit data source: Space-Track

COSMOS 249 DEB, 3794 is space debris in LEO originally from a launch on Sun, 20 Oct 1968 UTC launched from the Tyuratam Missile And Space Complex (TTMTR). Debris objects in space refer to the collection of defunct objects orbiting the Earth. Examples of debris include non-operational satellites, rocket bodies, and fragments generated from explosions, collisions, or faulty payload assembly.

Loading next visibility...
Identifier
3794, 1968-091BB
Orbit
LEO
Country
Flag of CISCIS
Related business
Manufacturer
Unknown
Mission
Spacecraft
Bus & Motor
Unknown
Mass
Unknown
Launch date (UTC)
1968-10-20 (57 years ago)
Launch vehicle
Unknown
Launch site
Tyuratam Missile And Space Complex (TTMTR)
Object type
Payload
Rocket body
Debris
Shape & HBR
Unknown shape, 0.1 m
Radar Cross Section
Small (<0.1 m²)

Expand to show TLE details & history
Last TLE update: 1 day ago

TLE from 1 day ago
0 COSMOS 249 DEB
1 03794U 68091BB  25340.27905587  .00010086  00000-0  85148-2 0  9997
2 03794  62.2697  85.0846 0580969 204.5187 152.7154 13.29848536684419
Epoch: 2025-12-06T06:41Z
TLE epoch observation values (Epoch: 2025-12-06T06:41:50.427Z)
Latitude
-0°
Longitude
-90.68459°
Altitude
1,542.525 km
Speed
6.908 km/s
True Right ascension
05h 40m 20s
True Declination
0° 00' 00"
Sunlit
Object was in full shadow at epoch
Visualization orbit readout
Latitude
Unknown
Longitude
Unknown
Altitude
Unknown
Speed
Unknown
Apparent Right ascension
Unknown
Apparent Declination
Unknown
Sunlit
N/A
Visualization observer readout
Local Sidereal Time
05:03:16
Azimuth
Unknown
Elevation
Unknown
Doppler factor
Unknown
Orbital elements
Apogee altitude
1,583.456 km
Perigee altitude
709.162 km
Semi-major axis
7,524.446 km
Eccentricity
0.0581
Inclination
62.2697°
RAAN
85.0846°
Arg. of periapsis
204.5187°
True anomaly
155.58061°
Mean anomaly
152.7154°
Eccentric anomaly
154.16594°
Mean motion
3.3253 °/min
Orbital period
108.26 mins
BSTAR
0.0085148
Loading maneuver chart data...
Computing Atmospheric mass density...

Documentation

Showing up to 5 results
|